Theta_e
318 317 316 316 316 316 316 316 315 314 314 313 312 311 311 311 311 311 311 311 312 312 313 313 314 315 316 316 316 317 317 317 317 318 319 320 321 321 321 321 321 321 321 321 320 320 319 318 316 316 317 318 319 318 318 318 317 316 317 317 318 319 319 318 318 318 319 320 320 321 321 321 321 322 321 321 322 323 324 323 324 325 326 327 327 327
317 317 316 316 317 316 315 315 315 314 314 313 313 312 311 311 311 312 312 312 312 313 313 314 315 316 317 317 317 317 317 318 318 318 320 321 321 322 322 322 322 322 322 322 321 321 321 321 320 318 317 318 318 318 318 318 317 317 317 316 316 317 318 318 318 318 318 320 320 320 320 321 321 321 321 321 322 323 324 325 325 326 326 327 327 327
317 317 316 317 317 316 315 315 315 314 314 313 313 312 311 311 312 312 313 313 313 313 314 314 315 316 317 317 317 318 318 318 319 319 320 321 321 322 322 321 322 322 322 323 323 323 323 323 323 322 320 320 319 319 319 319 319 319 319 316 316 316 317 317 317 317 318 319 319 320 320 321 321 321 321 322 323 324 325 325 325 325 326 326 327 326
317 317 317 317 317 316 315 314 314 314 314 313 313 312 312 312 312 312 313 313 313 313 314 315 316 316 317 317 318 318 319 319 319 319 319 320 321 321 321 321 321 322 323 323 323 323 324 324 323 323 322 322 321 321 321 321 320 320 318 316 315 316 316 317 317 317 318 319 319 320 320 321 322 322 323 324 324 324 324 324 324 325 326 326 326 326
318 317 317 317 316 315 314 314 314 314 314 314 313 313 312 312 312 312 312 313 313 314 314 315 315 316 317 317 317 318 319 319 319 319 319 319 319 320 320 320 321 321 321 321 322 322 322 322 322 321 321 321 321 320 320 319 318 318 317 316 316 316 316 316 317 317 318 319 320 321 322 322 323 323 324 324 324 324 324 323 324 325 325 325 325 324
318 317 317 317 316 315 314 313 314 314 315 314 314 314 313 313 312 312 312 313 313 313 314 314 315 316 316 317 317 318 318 319 319 319 318 318 318 318 318 319 320 320 320 320 320 320 320 320 320 320 320 320 320 319 319 319 319 319 319 319 318 318 318 318 318 319 320 321 322 323 323 323 323 323 323 323 323 322 322 322 323 323 323 323 323 323
318 318 317 317 316 315 314 314 314 315 315 315 314 314 314 313 313 313 313 313 313 313 314 314 315 316 316 317 317 318 318 318 318 318 318 317 317 317 317 318 318 318 318 318 318 317 317 318 318 319 320 320 320 320 320 321 321 322 322 322 322 321 321 321 321 321 322 322 323 323 323 323 323 322 322 321 321 321 320 320 321 321 321 321 321 321
318 318 317 317 316 315 314 314 314 315 315 315 315 315 315 314 314 314 314 314 314 314 315 315 316 316 317 317 318 318 318 318 318 318 317 317 317 317 317 317 317 317 317 317 316 316 316 316 317 318 319 320 320 321 321 321 322 322 322 323 323 323 323 323 323 323 323 323 322 322 322 322 321 321 320 320 319 319 319 320 320 320 320 319 319 319
318 318 317 316 316 315 315 315 315 315 315 316 316 316 316 315 315 315 315 316 316 316 316 316 317 317 318 318 318 318 318 318 318 318 318 318 317 318 318 318 317 317 317 317 317 317 316 316 317 317 318 319 319 320 320 320 320 321 321 322 322 323 323 323 323 323 322 322 321 320 320 320 319 319 319 319 319 319 319 319 319 319 319 319 319 319
318 318 317 316 316 315 315 315 315 316 316 317 317 317 317 317 316 316 316 317 317 317 317 317 318 318 318 318 318 318 319 319 318 318 318 318 318 318 318 318 318 318 318 318 318 318 318 317 317 318 318 318 318 318 319 319 319 320 320 321 321 322 322 322 322 321 320 320 319 319 319 319 319 319 319 320 320 320 320 320 320 320 320 320 320 319
318 318 317 316 316 316 316 315 315 316 316 317 317 318 318 318 317 317 317 317 318 318 318 318 319 319 319 319 319 319 319 319 319 319 319 319 318 318 318 318 318 318 319 319 319 319 319 319 319 318 318 318 318 318 318 319 319 319 319 320 320 320 320 320 320 320 319 319 319 319 320 320 320 321 321 321 321 321 321 321 321 321 320 320 319 318
318 318 317 317 316 316 316 315 315 315 316 317 318 318 318 318 318 317 318 318 318 318 319 319 319 319 319 319 319 319 319 319 319 319 319 318 318 318 318 318 318 318 318 318 318 318 319 319 319 319 319 319 319 319 319 319 319 319 320 320 320 320 320 320 320 320 320 321 321 321 321 321 322 322 322 322 322 322 321 321 320 320 319 318 318 318
318 318 318 318 317 316 315 314 314 315 317 318 318 318 318 318 318 318 317 318 318 318 318 318 319 319 319 319 319 319 319 319 319 319 318 318 318 318 318 318 318 317 317 317 317 318 318 318 319 319 319 319 319 319 319 320 320 320 320 321 321 320 320 320 320 321 321 321 321 322 321 322 322 323 323 323 322 322 321 320 320 319 318 318 318 318
319 319 318 318 317 317 316 315 316 317 317 318 318 318 318 318 318 318 318 318 318 318 318 318 318 318 318 318 319 318 318 318 318 318 318 318 318 318 318 318 317 317 317 317 317 317 317 317 318 318 318 319 319 319 319 319 319 320 320 320 320 320 319 319 319 320 320 321 321 322 322 322 323 323 322 322 321 321 320 320 319 318 318 318 318 318
319 319 318 318 317 317 317 317 318 318 317 317 317 317 317 318 318 318 318 318 318 318 318 318 318 318 318 318 318 318 318 318 318 318 318 318 318 318 318 318 317 317 317 317 317 317 317 317 317 317 318 318 318 318 318 319 319 319 319 319 319 319 319 319 319 319 319 320 320 320 321 321 321 320 320 319 319 319 319 318 318 318 318 318 318 318
319 319 319 319 318 318 318 318 318 318 317 316 316 316 317 317 318 318 318 318 318 318 318 318 318 318 318 318 319 319 318 318 318 318 318 318 318 318 318 318 317 317 317 317 316 316 317 317 317 317 317 318 318 318 318 318 318 318 318 318 318 318 318 318 318 318 318 318 318 318 318 318 318 318 318 318 318 318 318 318 318 318 318 318 318 318
319 319 319 319 318 318 319 319 318 317 316 316 316 316 317 317 317 318 318 318 318 319 319 319 318 318 317 318 319 319 319 318 318 319 318 318 318 318 318 318 318 317 317 317 316 316 316 316 316 317 317 317 318 318 318 318 318 318 318 318 317 317 317 317 317 318 318 318 318 318 318 318 318 318 318 318 318 318 318 318 318 318 318 318 318 318
319 319 319 319 319 319 319 319 318 317 317 316 316 316 317 317 317 318 318 318 319 319 319 319 319 318 318 317 318 319 319 318 318 319 318 318 318 318 318 318 318 317 317 317 316 316 315 315 315 315 316 317 317 317 317 317 317 317 317 317 317 317 317 317 317 317 318 318 318 318 318 318 318 318 318 318 318 318 318 318 318 318 318 318 318 318
319 319 319 319 319 319 319 318 317 317 317 317 317 317 317 317 318 318 318 318 319 319 319 319 319 319 318 317 317 318 319 319 318 319 318 318 317 318 318 318 317 317 317 317 316 316 315 315 314 314 315 316 316 316 316 317 317 317 317 317 317 317 317 317 317 317 317 317 317 317 317 317 318 318 318 318 318 318 318 318 318 317 317 317 317 317
319 320 320 319 319 319 318 317 317 317 317 317 317 318 318 318 318 318 318 318 318 318 318 319 319 319 318 318 318 318 319 318 319 319 319 318 318 318 318 317 317 317 317 317 316 316 316 315 315 314 314 315 315 315 315 316 316 316 316 316 316 316 317 317 317 317 317 317 317 317 317 317 318 318 318 318 318 318 318 318 317 317 317 317 316 316
319 319 318 317 317 317 318 317 317 317 317 317 318 318 318 318 318 318 318 318 318 318 319 319 318 318 318 318 318 318 318 319 319 319 318 318 318 317 317 317 317 317 317 316 316 316 316 316 315 315 314 314 315 315 315 315 315 315 315 315 315 316 316 316 316 316 316 316 316 317 317 317 317 317 317 317 317 317 317 317 317 317 317 316 316 316
318 317 316 316 316 316 317 317 317 316 316 317 317 318 318 318 318 318 318 318 318 318 318 318 318 318 318 318 318 318 318 318 319 318 318 318 317 317 317 317 317 317 317 316 316 316 316 316 316 315 315 314 314 315 315 315 315 315 315 315 315 315 315 315 315 316 316 316 316 316 316 316 317 317 317 317 317 317 317 317 317 317 316 316 315 315
317 316 316 315 316 316 316 316 316 316 316 316 317 318 317 318 318 317 317 317 318 318 318 318 317 318 318 317 317 318 318 318 318 318 319 318 317 317 317 317 317 317 317 316 316 316 316 316 316 316 316 315 315 315 315 315 315 315 315 315 315 315 315 315 315 315 315 315 315 316 316 316 316 316 317 317 317 317 317 317 317 317 316 315 314 313
317 316 316 316 316 316 316 316 317 317 317 317 317 317 317 317 317 317 317 317 317 317 317 317 317 317 317 317 317 317 318 318 318 318 318 317 316 316 316 317 317 317 316 316 316 316 316 316 316 316 316 316 316 316 316 315 315 315 315 315 315 314 314 314 314 314 314 314 314 314 314 314 315 315 315 315 315 316 316 316 316 316 316 314 313 311
316 316 317 317 316 316 317 317 317 317 317 317 317 317 317 317 317 317 317 317 317 316 316 316 316 316 316 316 316 317 317 317 317 317 318 317 316 316 316 316 316 316 315 315 315 316 316 316 316 316 316 316 316 316 316 316 316 315 315 315 314 314 313 313 313 312 312 311 311 311 310 310 310 310 310 311 311 311 312 312 313 313 313 312 311 310
316 317 317 317 316 316 316 317 317 317 317 317 317 317 317 317 317 317 317 316 316 316 316 316 316 316 316 316 316 316 316 316 316 317 317 316 315 315 315 315 315 315 314 314 314 315 315 315 315 315 315 315 315 315 315 315 315 314 314 313 313 312 311 311 310 309 309 308 308 307 307 306 306 305 305 305 305 305 306 307 307 308 309 309 309 309
316 317 317 317 317 316 316 316 316 316 317 317 317 317 317 317 317 317 317 316 316 316 316 317 316 316 316 316 315 315 315 316 316 316 316 316 315 314 314 314 314 314 313 313 313 313 314 313 313 313 312 312 311 312 311 312 311 311 311 310 310 309 308 307 307 306 306 306 306 305 305 305 305 304 304 304 304 304 304 304 304 304 305 305 306 307
316 316 316 316 316 316 316 316 316 316 316 316 316 316 316 316 316 317 316 316 316 316 316 316 316 316 316 315 315 315 315 315 315 315 315 315 315 314 313 313 313 313 312 311 310 311 312 311 310 310 309 308 308 307 307 307 307 307 307 306 306 305 305 305 305 305 305 306 306 306 307 307 307 307 307 306 306 306 306 305 305 305 305 305 306 306
316 316 316 315 316 316 316 316 316 316 316 316 316 315 315 315 316 316 316 316 316 316 316 316 316 315 315 314 314 314 314 314 314 315 315 315 314 313 313 313 312 312 312 310 309 309 310 309 308 307 306 305 305 305 305 305 305 305 305 305 304 304 305 305 306 306 307 307 308 308 309 309 309 308 308 308 307 307 307 306 306 307 307 307 307 307
315 315 315 315 315 315 315 315 315 315 315 315 315 315 314 314 315 316 315 315 315 316 316 315 315 315 314 314 313 313 313 313 313 314 314 314 313 313 313 312 312 312 311 310 309 308 308 308 306 305 304 304 304 305 305 306 306 306 306 306 306 306 307 307 308 308 309 309 309 309 309 309 308 308 308 308 307 307 307 306 307 307 307 307 308 308
315 315 314 314 314 314 315 315 314 314 314 314 314 314 314 314 315 315 315 314 314 315 315 314 314 314 313 313 312 312 312 312 312 313 312 313 312 312 312 311 311 312 312 311 310 308 307 307 306 306 305 305 306 306 307 307 308 308 308 308 308 308 308 308 309 309 309 309 309 309 309 308 308 308 308 308 307 307 307 307 307 307 307 307 308 308
314 314 314 314 314 314 314 314 314 314 314 314 313 314 314 314 314 314 314 314 314 313 313 313 313 313 313 313 312 312 312 312 312 312 312 312 312 312 312 312 311 312 312 312 311 310 308 307 307 307 307 308 308 308 309 309 309 309 309 309 309 309 309 309 309 309 309 309 309 309 309 308 308 308 307 307 307 307 307 307 307 307 307 307 308 308
314 314 314 314 314 314 314 314 313 313 313 313 313 313 313 313 313 313 313 313 312 312 312 312 312 312 312 312 313 312 312 312 312 312 312 312 312 312 312 312 312 312 312 312 312 311 310 309 308 308 308 309 309 309 309 309 309 309 309 309 309 309 309 309 309 309 309 309 309 309 309 308 308 308 308 307 307 307 307 307 307 306 306 307 307 307
314 314 314 314 313 313 313 313 313 313 312 312 312 312 313 312 312 312 312 312 312 311 311 311 311 312 312 312 312 312 312 312 312 312 311 312 312 311 311 311 311 311 311 311 311 311 310 310 309 309 309 309 309 309 309 309 309 309 309 309 309 309 308 308 308 308 308 308 309 309 308 308 308 308 308 307 307 307 307 307 306 306 306 306 306 307
313 313 313 313 313 313 312 312 312 312 311 312 312 312 312 312 312 311 311 311 311 311 311 310 311 311 311 311 310 310 310 310 311 310 310 310 310 309 309 310 310 310 310 310 310 310 310 310 309 309 308 308 308 309 309 308 308 308 308 308 308 308 308 308 308 308 308 308 308 308 308 308 308 308 307 307 307 307 307 307 307 307 306 306 306 306
311 311 312 312 312 311 311 311 311 311 311 311 311 311 311 311 311 311 311 311 310 310 310 310 309 309 309 309 309 308 308 308 308 308 308 307 307 307 307 307 307 308 308 308 309 309 309 309 308 308 307 307 307 307 307 307 307 307 307 307 307 307 307 307 307 307 307 307 308 308 308 308 308 308 307 307 306 306 307 307 307 307 307 306 306 306
308 309 309 310 310 310 310 310 310 310 310 310 310 310 310 310 310 310 310 309 309 309 308 308 308 307 307 306 306 306 306 306 305 305 305 305 305 305 305 305 305 306 306 306 306 306 306 307 307 306 306 306 306 305 305 306 306 306 306 306 306 306 306 306 306 306 307 307 307 307 307 307 307 307 307 306 306 306 306 306 307 307 307 306 306 306
306 307 307 308 308 308 308 309 309 309 308 308 309 309 309 308 308 308 307 307 307 306 306 306 305 305 304 304 303 303 303 303 303 303 303 304 304 304 304 304 304 304 304 304 305 305 305 305 305 305 305 305 305 305 305 305 305 305 305 305 305 305 305 305 305 305 305 306 306 306 306 306 306 306 306 306 305 306 306 306 306 306 306 306 306 305
304 305 305 306 306 307 307 307 307 307 307 307 307 306 306 306 305 305 305 304 304 304 303 303 303 302 302 302 302 301 301 302 302 302 302 302 303 303 303 303 303 303 303 303 304 304 304 304 304 304 304 304 304 304 304 304 304 304 304 304 304 304 304 304 304 304 304 304 305 305 305 305 305 305 305 305 306 306 306 306 305 305 305 305 305 305
303 303 304 304 304 305 305 305 305 305 305 305 304 304 304 303 303 303 302 302 302 302 302 301 301 301 301 301 301 301 301 301 301 301 301 301 302 302 302 302 302 302 302 302 303 303 303 303 303 303 303 303 303 303 303 303 303 303 303 303 303 303 303 303 303 303 303 304 304 304 304 304 304 304 305 305 305 306 306 306 305 305 305 305 305 305
301 302 302 302 303 303 303 303 303 303 303 303 302 302 302 302 301 301 301 301 301 301 300 300 300 300 300 300 300 300 300 300 301 301 301 301 301 301 302 302 301 302 302 302 302 302 303 302 303 303 303 303 303 303 303 303 303 303 303 303 303 303 303 303 303 303 303 304 304 304 304 304 304 304 304 304 304 305 305 305 305 305 304 304 305 305
301 301 301 301 301 302 302 302 302 301 301 301 301 301 301 300 300 300 300 300 300 300 300 300 300 300 300 300 300 300 300 300 300 300 300 301 301 301 301 301 301 301 302 302 302 302 302 302 302 302 302 302 302 302 302 303 303 302 302 302 302 302 302 303 303 303 303 304 304 303 304 304 304 304 304 304 304 304 304 304 304 304 304 304 304 305
300 300 300 301 301 301 301 300 300 300 300 300 300 300 300 300 300 300 299 299 299 299 299 300 300 300 300 300 300 300 300 300 300 300 300 300 300 301 301 301 301 301 302 302 301 301 301 301 301 302 302 302 302 302 302 302 302 302 302 302 302 302 302 302 302 303 303 304 304 304 304 304 304 304 304 304 304 304 304 304 304 304 304 304 304 305
299 300 300 300 300 300 300 300 300 300 300 299 299 299 299 299 299 299 299 299 299 299 299 299 299 299 299 300 300 300 300 300 300 300 300 300 300 300 300 301 301 301 301 301 301 301 301 301 301 301 301 302 302 302 302 302 302 302 302 302 302 302 301 302 302 302 303 303 303 304 304 303 303 303 304 304 304 304 304 304 304 304 304 304 304 304
299 299 300 300 300 300 300 300 299 299 299 299 299 299 299 299 299 298 298 298 298 298 298 298 298 299 299 299 299 299 300 300 300 300 300 300 300 300 300 300 301 301 301 301 301 301 301 301 301 301 301 301 301 301 301 301 302 302 302 302 302 302 302 302 302 302 302 302 302 303 303 302 302 303 303 304 304 304 304 303 304 304 303 303 303 303
299 299 299 299 300 299 299 299 299 299 299 299 299 299 298 298 298 298 298 298 298 298 298 298 298 298 298 299 299 299 299 299 300 300 300 300 300 300 300 300 300 300 301 301 301 301 301 301 301 301 301 301 301 301 301 301 301 301 302 302 302 302 301 302 302 302 302 301 302 302 302 302 302 303 303 303 303 303 303 303 303 303 303 303 303 303
298 299 299 299 299 299 299 299 299 299 298 298 298 298 298 298 298 298 298 298 298 298 298 298 298 298 298 298 298 299 299 299 299 299 299 299 299 300 300 300 300 300 300 300 300 300 300 300 300 301 301 301 301 301 301 301 301 301 301 301 301 301 301 301 301 302 302 302 301 301 301 301 302 302 303 303 303 303 303 303 303 303 302 302 302 302
298 298 298 299 299 299 299 299 298 298 298 298 298 298 298 298 298 298 298 298 298 298 297 297 297 298 298 298 298 298 298 299 299 299 299 299 299 299 299 299 300 300 300 300 300 300 300 300 300 300 301 301 301 301 301 301 301 301 301 300 301 301 301 300 301 301 302 302 302 302 301 301 301 301 302 302 302 302 303 302 302 302 302 302 302 302
298 298 298 298 298 299 299 298 298 298 298 298 298 298 298 298 298 298 298 298 297 297 297 297 297 298 298 298 298 298 298 298 298 298 298 299 299 299 299 299 299 299 300 300 300 300 300 300 300 300 300 300 301 301 301 301 301 300 300 300 300 300 300 300 300 300 301 301 301 301 301 301 301 301 300 301 302 302 302 302 302 302 302 302 301 301
298 298 298 298 298 298 298 298 298 298 298 298 298 298 297 297 298 298 298 297 297 297 297 297 297 297 297 298 298 298 298 298 298 298 298 298 299 299 299 299 299 299 299 300 300 300 300 300 300 300 300 300 300 300 301 301 300 300 300 300 300 300 300 299 299 299 300 300 300 300 300 301 301 300 300 300 301 302 302 302 302 302 301 301 301 301
297 298 298 298 298 298 298 298 298 298 298 298 297 297 297 297 297 297 297 297 297 297 297 297 297 297 297 297 297 297 297 297 297 298 298 298 298 298 298 298 299 299 299 299 300 300 300 299 299 299 299 299 300 300 300 300 300 300 299 299 299 299 299 299 299 299 299 299 299 299 299 299 299 300 300 300 301 302 302 302 301 301 301 301 300 300
Wind_Speed
10 11 12 12 13 13 14 16 16 16 16 17 17 17 16 16 16 15 14 13 13 12 12 13 14 16 17 21 24 25 24 24 22 21 20 21 21 22 22 23 23 23 22 20 18 17 16 14 12 10 8 8 7 7 6 6 4 2 1 2 3 4 6 8 10 11 11 11 9 8 7 7 8 10 10 8 7 6 9 12 16 21 27 35 42 48
10 12 12 13 14 14 15 16 17 17 16 17 17 16 16 16 16 16 15 14 14 14 14 15 15 16 19 22 23 23 24 24 24 22 21 20 20 20 21 22 22 22 21 18 16 14 13 12 11 9 6 5 3 3 2 3 3 2 1 2 4 5 7 9 11 12 11 10 8 7 7 7 8 9 9 8 8 10 14 19 24 30 36 43 48 50
11 12 13 14 15 15 15 16 17 17 16 16 16 16 16 16 16 17 17 16 16 16 16 17 18 19 21 22 22 23 23 24 24 23 21 20 19 19 20 22 22 22 21 19 18 16 14 13 11 9 6 4 2 1 1 1 1 2 2 1 3 6 8 10 12 12 11 9 7 6 6 6 7 8 9 10 13 17 23 28 33 38 42 47 49 50
12 13 13 14 16 16 16 15 15 16 16 16 17 17 18 17 18 18 18 18 18 18 18 19 21 22 23 24 24 23 24 24 24 24 22 21 20 20 21 22 22 22 22 22 21 20 18 16 14 11 9 7 5 4 3 3 3 2 2 2 4 7 9 11 11 11 10 8 6 5 4 5 6 8 12 16 21 26 31 35 39 41 43 45 47 47
13 14 14 15 15 16 16 15 15 15 16 17 18 19 19 20 20 20 19 19 20 20 21 22 23 25 26 27 28 27 26 26 26 25 25 24 23 23 23 23 22 23 24 24 24 22 20 18 16 14 12 11 10 9 9 8 8 7 7 8 9 10 10 11 10 9 8 6 4 4 5 8 12 16 21 26 31 35 38 41 42 43 44 44 45 46
13 14 15 16 15 15 15 14 14 15 16 18 20 21 22 22 22 22 22 22 23 23 24 25 26 28 30 32 33 32 31 30 30 29 29 28 27 27 26 26 26 27 29 29 28 26 24 20 17 15 13 12 11 11 11 10 10 10 11 11 11 11 11 11 10 8 7 6 7 10 15 20 25 29 33 37 40 43 44 45 46 46 46 46 47 46
13 15 16 16 16 16 15 14 14 16 18 21 23 25 26 26 25 24 24 25 26 27 28 28 30 31 34 36 36 36 36 35 35 35 34 34 34 34 34 34 35 36 36 35 35 34 32 28 23 19 15 13 11 11 11 11 12 12 11 11 11 12 12 11 11 11 12 15 20 26 31 35 38 41 42 45 46 47 47 46 47 47 47 47 46 45
13 15 16 16 16 16 16 15 16 18 20 23 25 27 29 29 28 28 27 28 29 29 30 31 33 34 36 38 40 40 41 41 40 40 40 41 42 42 43 43 44 44 44 43 43 43 42 40 36 30 25 20 19 18 17 17 18 18 18 19 18 18 18 18 20 23 27 32 37 41 44 46 47 47 47 48 48 47 47 46 46 45 45 44 42 41
13 15 16 17 17 17 17 17 18 20 22 25 27 29 30 31 31 30 30 31 31 32 33 35 36 38 40 41 43 44 44 44 44 44 45 46 46 47 48 49 49 50 50 50 50 50 50 49 46 43 39 37 35 35 34 34 35 36 36 35 33 31 31 32 35 39 42 46 48 50 51 51 50 50 49 48 47 46 45 44 43 41 40 39 37 35
14 15 16 17 18 18 18 18 19 21 23 26 28 30 31 32 32 32 32 33 33 34 35 37 39 41 42 43 44 45 45 45 45 45 46 46 47 47 48 49 50 50 51 51 52 52 52 52 51 49 48 48 48 49 50 51 51 51 51 49 47 44 43 44 46 48 50 51 52 52 51 51 50 48 46 44 42 41 39 37 35 34 33 31 30 28
14 16 18 18 19 19 19 19 20 22 24 26 28 29 30 31 32 32 32 33 34 35 36 37 39 40 42 43 43 43 43 43 43 43 43 43 44 44 45 46 46 47 48 49 50 51 51 51 51 50 50 49 50 51 53 54 55 56 55 55 53 52 51 51 51 51 51 50 49 48 47 46 44 42 40 38 36 34 33 31 30 29 28 27 27 27
14 17 19 19 19 19 19 19 20 21 23 24 26 27 28 29 30 31 31 32 32 33 34 35 36 38 39 40 41 41 40 40 40 40 40 40 40 41 42 42 43 44 45 46 47 48 48 49 49 49 48 48 47 47 48 50 51 52 52 52 51 50 49 49 48 46 45 44 43 42 41 40 38 37 34 32 30 29 28 26 25 25 25 26 27 27
15 18 19 20 19 18 18 18 19 20 22 23 25 26 27 28 29 29 30 30 31 31 32 32 33 34 35 37 38 38 38 38 38 38 38 38 39 39 40 40 41 42 42 44 45 45 46 46 47 47 46 46 45 44 44 44 45 45 45 44 44 43 43 42 41 40 39 38 37 37 36 35 32 29 27 25 24 23 23 22 22 22 23 25 26 25
15 18 20 20 19 18 17 17 18 20 21 22 23 25 26 26 27 28 28 29 29 29 30 30 30 31 32 34 35 36 36 36 36 36 37 38 38 38 39 39 40 41 42 43 43 44 44 44 44 44 44 43 43 42 41 41 41 41 40 39 39 38 38 38 37 36 35 34 34 33 32 31 29 27 26 26 26 26 26 26 25 25 26 26 25 24
15 18 20 20 19 17 17 16 17 19 20 21 23 24 25 25 26 26 27 28 29 29 29 29 29 30 31 32 33 34 35 35 36 36 37 37 37 37 37 38 39 39 40 42 42 42 42 42 42 41 41 40 40 39 39 39 39 38 38 37 36 35 35 35 35 34 33 33 33 32 32 31 31 32 32 32 32 32 31 31 30 29 28 26 25 23
15 18 20 20 19 17 16 15 16 18 19 21 22 23 24 25 25 25 26 27 28 28 29 29 30 30 31 31 31 33 35 35 35 35 36 36 36 36 36 36 37 38 39 40 40 40 40 40 39 39 38 37 37 36 36 36 36 36 35 35 34 34 34 33 34 33 33 33 33 32 32 32 32 32 32 32 32 32 31 30 29 27 25 23 22 21
15 17 19 20 18 17 15 15 15 17 19 20 22 22 23 24 25 25 26 27 27 28 28 29 30 31 31 30 31 32 33 34 34 34 34 34 34 34 34 34 35 36 36 37 38 38 38 38 37 37 36 35 34 34 34 34 33 33 33 33 33 33 33 33 34 34 34 33 32 31 30 30 29 29 29 29 28 28 27 26 24 23 21 20 19 18
14 17 19 19 18 17 15 15 16 17 19 20 21 22 22 23 24 25 26 26 26 27 27 28 30 31 31 30 30 31 32 33 32 32 32 33 33 32 32 33 33 33 34 34 35 35 36 36 36 35 34 33 32 32 32 31 31 30 30 30 30 30 30 31 31 31 31 30 29 28 27 26 25 25 24 24 24 23 22 21 19 18 17 17 16 16
14 17 19 19 19 18 16 16 16 17 19 19 20 21 22 22 23 24 24 25 25 26 27 28 29 30 30 30 29 29 30 30 30 30 30 31 31 30 30 30 30 31 31 32 32 32 33 33 33 33 32 31 31 31 30 30 29 29 28 27 26 26 26 26 26 26 26 25 25 24 23 22 21 20 20 19 18 17 16 15 14 14 13 13 13 12
15 18 20 20 20 19 18 18 18 18 19 19 20 20 21 21 21 22 23 24 25 26 26 27 28 29 29 28 28 27 27 28 28 28 29 29 28 28 27 27 27 28 28 29 29 29 29 30 30 30 30 29 29 28 28 28 28 28 27 27 26 25 24 24 23 23 23 22 22 21 20 19 18 17 16 15 14 13 12 12 11 11 11 11 11 10
16 19 21 21 21 20 20 19 19 20 19 19 19 19 20 20 20 21 22 23 24 25 26 27 28 28 27 27 26 25 25 25 26 26 26 26 26 26 25 24 25 25 26 26 26 25 26 26 27 28 28 27 26 26 26 26 26 26 26 26 26 25 25 24 24 23 23 22 21 20 20 18 17 16 15 14 13 12 11 11 11 11 11 10 10 9
17 20 22 22 22 21 21 21 21 21 20 20 20 20 19 19 20 21 21 22 23 24 25 26 26 26 25 25 24 23 22 22 23 24 24 25 25 24 23 22 22 23 23 24 23 23 23 23 24 25 25 25 24 24 24 25 25 25 25 25 25 25 25 25 24 24 23 23 22 21 20 20 19 17 16 15 14 13 12 11 11 10 10 9 9 9
18 20 22 24 23 23 22 22 21 21 21 20 20 20 19 19 20 20 21 21 22 22 23 24 24 24 23 23 22 21 20 20 21 22 23 24 25 24 22 22 22 22 23 22 22 21 21 21 22 22 22 22 22 22 23 23 23 23 23 23 23 23 23 23 23 23 23 22 22 21 20 20 19 18 17 17 15 14 13 11 10 9 8 8 8 9
17 20 22 24 24 23 22 22 21 21 20 20 19 19 18 18 19 19 19 20 20 21 21 22 22 22 22 21 20 20 19 19 19 20 22 24 24 23 22 22 22 23 23 22 21 21 20 20 20 20 20 20 20 21 21 21 22 22 22 22 22 22 22 22 22 22 22 22 21 21 20 20 19 18 18 17 16 15 14 12 11 10 9 9 10 12
17 19 21 23 24 23 22 22 21 20 20 19 18 18 17 17 17 17 18 18 19 20 20 20 21 21 20 20 19 20 19 18 18 20 22 24 24 23 23 23 23 24 23 22 21 21 21 21 21 20 20 20 20 20 20 21 21 21 21 21 21 21 21 22 22 22 22 22 21 21 21 20 20 19 19 18 18 17 16 15 14 13 12 12 13 13
17 18 20 22 23 23 22 21 20 19 19 18 17 17 16 16 16 16 17 18 18 19 18 19 19 20 20 19 19 20 20 19 19 20 22 23 24 24 23 23 24 24 24 23 22 22 22 23 23 22 22 21 21 21 21 21 21 21 21 21 21 21 21 22 22 22 22 22 21 21 21 21 21 20 20 19 19 18 17 16 16 15 14 13 13 13
17 17 18 19 20 21 21 20 20 19 18 18 17 17 16 16 16 16 16 17 17 17 17 18 19 20 19 20 20 20 20 20 20 21 22 23 24 24 24 23 24 24 24 24 23 23 23 24 24 24 24 23 22 22 22 22 22 22 22 22 22 22 22 22 22 22 22 21 21 21 21 21 21 21 20 20 19 19 18 17 16 15 14 13 13 12
17 17 16 17 18 19 19 19 19 18 18 17 17 16 16 16 15 16 16 16 16 16 16 17 18 20 20 20 21 20 20 20 20 21 21 23 24 24 23 23 23 24 24 24 24 23 24 24 24 24 24 23 23 22 22 22 22 22 22 22 22 22 22 22 21 21 21 21 21 21 21 21 20 20 20 20 19 19 18 17 16 15 14 13 13 12
18 17 16 16 16 17 18 18 18 17 17 16 16 16 15 15 14 14 15 15 15 15 16 16 18 19 20 21 21 20 20 20 20 20 20 22 23 23 22 22 23 23 24 24 23 23 23 24 24 23 23 22 22 22 21 21 21 21 21 21 21 21 21 20 20 20 20 20 20 20 20 20 20 20 20 20 19 19 19 18 17 16 16 15 14 14
18 17 17 16 16 17 17 17 17 16 16 16 15 15 15 14 13 13 14 14 14 14 14 15 17 18 20 21 21 21 20 20 19 19 19 21 22 21 20 21 21 21 22 23 23 23 23 22 22 21 21 21 20 20 20 20 20 20 20 20 20 20 19 19 19 19 19 19 19 19 19 19 19 19 19 19 19 19 19 18 18 17 17 17 17 16
19 18 17 17 17 17 17 16 16 15 15 15 15 15 15 14 13 13 13 14 14 13 13 14 15 17 18 20 21 21 20 18 17 17 17 18 19 18 18 18 18 17 18 19 20 21 21 20 19 19 19 18 19 19 19 19 18 18 18 18 18 19 18 18 18 18 18 18 18 18 18 19 19 19 19 19 19 19 19 18 18 18 18 18 18 18
19 18 18 17 17 17 16 16 16 15 15 15 15 16 15 15 14 13 13 13 13 13 13 13 14 15 16 17 18 19 18 16 15 15 15 15 15 15 15 15 14 14 14 15 16 17 16 18 18 17 17 17 17 17 17 17 17 17 17 17 17 18 17 17 17 17 17 17 17 17 18 18 18 18 18 19 18 18 18 18 18 18 18 18 19 19
19 18 18 18 17 17 16 16 15 15 15 15 16 16 16 15 14 14 13 13 12 12 12 13 13 14 15 15 16 16 16 14 14 13 13 13 13 13 13 13 13 13 13 13 15 15 15 17 17 16 16 16 16 16 16 16 16 16 16 16 17 17 16 16 16 16 16 16 16 16 17 17 18 18 18 18 18 18 18 18 18 18 18 18 19 19
19 18 18 18 17 17 16 16 16 16 16 16 16 16 15 15 14 13 13 12 12 11 11 12 12 13 13 14 14 15 15 14 13 12 12 13 13 14 14 13 12 12 12 13 13 14 16 16 16 16 16 15 15 15 15 15 15 15 15 16 16 16 16 15 15 15 15 15 15 15 16 16 17 17 17 17 17 17 18 18 18 18 18 18 18 18
19 18 18 18 17 17 16 16 16 16 16 16 16 15 15 14 13 12 12 12 11 11 11 11 12 12 12 13 13 14 14 14 13 12 12 13 13 14 14 13 12 12 12 12 12 13 14 14 14 14 15 15 14 14 14 14 14 14 14 14 15 15 15 15 14 14 14 14 14 14 14 15 15 16 16 17 16 16 16 17 17 18 18 18 17 17
19 19 18 18 17 17 17 17 16 16 16 16 15 15 14 13 13 12 11 11 11 10 10 10 11 11 12 12 13 14 14 14 13 13 12 12 13 13 13 13 12 12 11 11 11 11 12 13 13 13 13 14 14 14 14 13 13 13 13 13 14 14 14 14 13 13 13 13 13 13 13 13 14 14 15 15 15 15 15 15 16 16 17 17 17 17
19 19 18 18 17 17 17 17 16 16 16 16 16 15 15 14 13 12 12 11 10 10 10 10 10 10 11 11 12 12 13 13 13 13 13 13 12 12 12 13 13 12 11 11 10 10 10 11 12 12 12 13 14 15 14 13 12 12 12 13 13 13 13 12 12 11 11 12 12 13 13 13 13 13 13 13 13 13 13 14 15 15 15 16 16 16
20 19 19 18 17 17 17 16 16 16 16 16 16 15 15 14 14 13 12 11 11 10 10 10 10 10 10 10 11 11 12 13 13 13 13 13 12 11 12 12 13 13 12 11 10 10 9 9 10 11 12 13 14 14 13 12 11 12 12 12 12 12 13 12 11 11 11 11 12 12 12 12 12 12 12 11 11 11 12 13 14 14 15 15 15 15
20 19 19 18 17 17 16 16 16 16 15 15 15 15 14 14 14 13 13 12 11 11 10 10 10 10 9 10 10 11 12 13 13 13 13 13 12 12 11 11 12 12 12 12 11 10 9 8 8 10 12 13 13 13 12 11 11 12 12 11 11 12 12 12 12 12 12 12 12 12 12 12 12 11 11 10 10 10 11 13 14 14 14 14 14 14
20 20 19 18 18 17 16 16 16 15 15 15 14 14 14 14 13 13 13 12 12 11 11 10 10 10 10 10 11 11 12 13 13 13 13 13 12 12 11 11 11 11 12 12 11 10 9 8 9 10 11 12 12 12 12 11 11 11 10 10 11 12 13 13 13 13 12 12 12 12 12 12 11 11 10 10 10 11 12 12 13 13 13 13 13 12
20 20 19 18 18 17 17 16 16 16 15 15 14 14 14 13 13 13 12 12 12 11 11 10 10 10 10 10 10 11 11 12 12 12 13 13 12 12 11 11 11 11 11 11 11 10 9 9 10 11 11 11 11 11 11 11 11 10 8 9 10 12 12 12 13 12 12 12 12 12 12 12 11 11 11 11 11 11 12 12 12 13 12 12 11 11
20 20 19 19 18 18 17 17 16 16 15 15 14 14 13 13 13 12 12 12 11 11 11 10 10 10 10 10 10 10 11 11 11 12 12 12 12 11 11 11 11 11 11 10 9 9 9 9 10 11 11 10 9 9 10 10 10 9 9 9 10 10 11 11 12 11 11 11 11 11 11 11 12 12 12 12 12 12 12 12 12 12 12 11 11 10
20 20 19 19 18 18 18 17 17 16 16 15 14 14 13 13 12 12 12 11 11 11 10 10 9 9 9 10 10 10 10 10 10 11 11 11 11 11 10 10 11 11 10 9 8 8 8 8 9 10 10 10 8 8 9 9 9 9 9 9 8 9 11 11 11 10 10 10 10 10 11 11 12 12 11 11 11 11 11 11 11 11 11 10 10 9
20 20 19 19 18 18 18 17 17 16 16 15 14 14 13 13 13 12 12 11 11 11 10 9 9 8 8 9 9 10 10 10 10 10 10 10 10 10 10 10 10 10 9 8 7 8 8 8 9 9 10 9 8 7 8 8 9 9 9 8 8 8 10 11 10 9 9 9 9 10 10 11 11 11 10 10 10 11 11 11 10 10 10 10 10 9
20 20 19 19 18 18 18 17 17 16 16 15 15 14 14 13 13 12 12 11 11 10 10 9 8 7 8 8 9 9 9 9 9 9 9 9 9 9 9 9 9 9 8 8 7 7 7 8 9 9 9 9 8 7 8 8 8 9 9 8 8 8 9 10 9 9 8 9 10 11 11 10 10 9 9 9 10 10 11 11 11 10 10 10 10 10
19 19 19 19 18 18 18 17 17 16 16 15 15 14 14 13 13 13 12 11 11 10 10 9 7 7 7 8 8 8 9 9 9 9 9 9 9 9 9 9 9 9 8 7 7 7 6 7 8 9 9 8 7 7 8 8 9 9 9 9 9 9 9 9 9 9 9 10 11 11 11 10 8 8 8 9 10 10 10 10 10 11 11 11 11 11
19 19 19 19 19 18 18 17 17 16 16 15 15 14 14 13 13 13 12 12 11 10 10 9 7 6 7 8 8 8 8 8 8 8 8 8 8 8 8 8 8 8 7 7 6 6 6 6 7 8 8 6 6 7 8 8 8 9 9 9 9 9 9 10 10 10 10 11 11 11 11 9 8 8 9 9 9 9 10 10 10 10 10 11 11 12
19 19 19 19 19 18 18 17 17 16 16 16 15 15 14 14 13 13 13 12 12 11 10 9 7 7 8 8 8 8 8 8 8 8 8 8 8 8 8 8 7 7 7 7 6 6 5 6 7 7 7 6 6 6 7 8 8 8 9 9 9 9 10 10 10 10 11 11 11 11 10 9 9 10 10 9 9 9 9 10 10 10 10 11 11 12
19 19 19 19 19 18 18 18 17 17 16 16 16 15 15 14 14 14 13 13 12 11 10 8 8 8 8 9 9 8 8 7 7 7 7 7 7 7 7 7 7 7 6 6 6 5 5 6 6 7 7 7 7 6 6 7 7 8 8 9 9 9 10 10 10 11 11 12 11 11 10 10 10 10 9 9 8 9 9 9 9 10 10 10 11 12
19 19 19 19 19 19 19 18 18 17 17 17 16 16 16 15 15 14 14 14 13 12 10 9 8 8 9 9 9 9 8 8 7 7 7 7 7 6 7 6 6 6 6 6 5 5 6 6 6 6 6 6 7 7 7 7 7 7 8 8 9 9 10 10 11 11 12 12 12 12 11 11 11 10 9 8 7 8 8 9 9 10 10 10 11 12
20 20 19 19 19 19 19 19 18 18 18 17 17 16 16 16 15 15 15 14 13 12 11 10 9 8 9 9 9 9 9 8 8 7 7 7 7 6 6 6 6 6 5 5 5 5 6 6 7 7 7 5 5 6 7 7 7 7 7 8 9 9 10 10 11 11 12 13 13 12 12 12 12 11 10 8 6 6 7 8 9 10 10 10 11 11
Wind_Direction
55 58 62 69 74 75 71 67 62 54 48 45 42 39 37 35 33 30 27 28 34 43 51 61 65 65 65 66 66 65 62 56 49 40 31 25 20 15 10 8 7 8 10 12 15 15 13 9 5 4 6 11 15 17 15 13 8 352 272 241 215 190 178 173 168 163 159 157 156 158 161 163 165 168 175 185 188 177 167 165 162 157 152 148 146 146
64 68 75 82 84 79 73 69 64 58 53 49 46 44 43 42 42 42 40 42 49 59 66 70 70 69 68 68 67 65 62 58 52 45 37 29 22 15 9 6 6 8 11 14 17 18 17 11 4 358 354 357 4 14 25 30 28 15 340 258 217 194 180 174 169 166 163 161 161 162 162 160 158 161 167 172 165 152 147 146 145 144 144 144 145 147
74 78 86 92 91 84 76 70 65 60 57 54 52 52 51 50 50 51 53 54 59 66 73 75 76 74 72 70 68 66 63 60 56 50 42 33 23 14 8 6 8 13 19 24 26 27 27 24 18 11 4 356 341 329 330 356 8 358 341 304 197 179 172 169 168 168 168 168 170 171 169 161 158 158 159 157 150 143 141 140 139 140 142 142 143 145
83 89 95 97 94 88 81 73 66 62 60 60 59 59 59 58 59 60 62 64 68 72 76 79 79 77 76 75 72 70 67 64 60 54 46 36 26 18 14 14 18 25 33 37 38 37 35 34 32 31 32 34 34 33 37 41 47 48 44 80 125 144 151 156 160 164 168 170 174 176 174 166 159 153 148 145 140 138 137 137 138 140 141 142 142 143
92 99 104 102 97 90 83 77 71 68 67 67 67 67 67 67 68 69 70 71 74 76 78 80 81 81 81 80 78 76 72 68 63 56 49 41 34 30 29 31 37 44 51 53 52 48 44 39 36 36 40 47 54 60 66 73 78 82 85 94 106 118 129 138 146 154 161 167 172 170 156 147 142 139 138 136 134 132 132 132 136 139 141 142 142 142
100 108 111 108 102 95 87 82 79 77 76 75 75 74 74 74 74 75 76 77 78 79 81 82 84 85 85 84 83 80 76 71 66 60 55 51 49 49 51 55 60 64 66 66 65 63 60 54 48 43 43 47 55 63 72 78 84 87 89 94 100 109 118 127 136 145 151 153 146 139 134 133 132 131 130 128 126 125 125 126 129 132 134 137 139 139
107 114 115 112 106 100 94 91 88 85 83 82 81 80 80 80 80 80 80 81 82 82 84 85 86 87 87 86 84 82 78 73 69 65 63 63 64 66 68 71 73 74 73 73 73 73 72 72 71 67 62 59 61 67 75 81 86 89 91 95 101 108 116 123 130 134 134 131 128 127 126 126 126 125 124 122 121 120 120 121 122 124 127 129 132 132
113 119 119 116 110 104 100 98 94 90 88 88 88 87 85 84 84 84 83 82 83 84 85 86 87 87 87 86 84 81 79 76 74 72 72 72 73 74 75 75 76 76 75 76 76 77 77 79 81 83 84 86 87 89 92 95 97 100 103 105 107 110 114 118 120 122 122 122 121 121 121 121 121 120 120 119 118 118 119 119 120 121 122 122 123 123
118 124 124 120 115 109 104 100 97 95 94 94 93 92 91 89 87 86 84 83 84 85 85 86 86 86 85 84 83 82 81 80 79 79 78 78 77 76 76 76 76 75 76 76 76 77 77 79 81 84 89 93 96 99 101 103 105 107 108 109 111 113 114 116 117 118 118 118 118 117 117 117 117 117 116 116 116 116 116 116 116 117 117 117 116 115
124 129 129 123 118 112 106 102 99 98 98 99 97 95 94 92 90 88 85 85 85 85 86 86 87 87 86 85 84 84 84 83 83 82 82 81 79 78 77 77 76 76 76 75 75 75 76 77 79 81 86 90 94 98 101 103 105 107 108 110 112 113 115 116 116 116 116 116 115 114 114 114 114 114 114 114 114 114 112 110 109 108 109 108 107 106
129 133 132 127 120 113 107 103 101 101 102 102 100 97 94 92 91 89 88 87 86 86 87 87 88 88 88 88 88 87 87 87 86 84 83 82 81 79 78 78 77 76 76 75 75 75 75 75 76 78 80 84 88 92 96 99 102 104 105 107 109 111 112 113 114 113 113 113 112 112 113 113 114 114 114 113 113 110 106 102 99 99 99 99 99 98
134 137 135 130 122 115 108 104 103 104 105 105 102 99 95 92 90 89 89 88 88 87 88 88 89 89 90 91 91 90 89 89 88 86 84 82 81 80 79 78 77 76 76 75 75 74 74 74 75 75 76 78 81 84 89 93 96 99 100 102 104 105 107 109 110 111 112 112 113 115 116 116 114 113 111 109 107 104 101 98 96 97 100 102 103 103
138 141 138 132 124 117 112 110 110 110 109 107 104 101 97 94 92 91 90 90 89 89 89 89 89 90 90 91 91 91 91 90 88 86 84 83 81 80 79 79 78 78 76 76 75 75 74 74 74 74 75 75 76 78 80 83 87 90 92 94 95 96 98 101 103 106 109 112 113 115 115 114 112 110 108 108 107 106 105 104 105 107 110 113 114 112
142 143 140 134 128 122 118 117 116 113 110 107 105 102 100 97 95 94 93 92 91 91 90 90 90 89 90 90 91 91 91 90 88 86 84 83 82 81 80 80 80 79 78 78 77 76 75 75 75 75 75 75 75 75 75 76 78 79 81 83 84 84 85 88 91 96 100 104 108 110 111 113 114 115 116 117 117 116 115 115 116 117 119 120 120 118
144 145 143 138 133 128 123 119 115 112 109 108 106 104 102 99 98 96 95 94 94 93 93 92 91 90 89 89 90 91 91 90 88 86 85 84 83 82 81 81 81 80 79 79 79 78 77 76 76 76 76 76 76 77 77 77 77 78 78 79 79 79 80 82 85 88 92 96 99 102 105 108 111 113 114 114 114 114 115 116 117 119 120 119 117 114
146 147 146 142 137 131 125 120 117 115 113 110 108 106 104 102 100 98 97 97 97 96 96 95 93 91 89 90 90 91 91 90 89 88 87 86 84 83 81 81 80 79 79 79 79 79 78 78 78 78 78 78 79 79 80 80 80 81 82 83 83 84 85 87 89 91 93 94 95 96 97 99 102 104 106 108 110 111 113 114 115 116 115 112 108 103
149 150 148 144 139 132 126 123 121 120 117 114 111 108 106 104 101 99 98 97 97 98 98 97 96 94 92 91 91 91 91 91 90 89 88 86 85 83 81 80 79 78 78 78 78 78 79 79 79 79 79 79 80 80 81 81 82 82 83 84 86 88 90 92 95 96 97 97 97 97 98 98 100 103 106 108 110 112 113 113 112 109 106 101 96 90
151 151 149 145 139 133 129 126 124 122 119 116 113 110 107 104 102 100 99 97 97 97 97 97 98 97 95 92 91 91 91 91 91 90 89 86 84 83 81 80 79 78 78 78 78 78 78 78 79 79 79 78 78 78 79 80 81 82 82 83 84 86 89 92 95 97 99 99 100 100 100 101 102 103 105 107 108 108 107 105 101 97 92 88 84 80
153 151 148 143 138 133 130 128 126 124 122 119 116 112 109 106 103 100 98 96 96 95 96 98 99 99 98 96 94 92 91 91 91 90 88 86 84 82 81 80 80 80 79 79 78 78 79 79 79 78 77 75 74 74 75 77 78 80 81 82 83 84 86 88 91 94 96 98 99 100 100 100 100 100 101 101 100 98 94 90 84 79 75 73 71 68
153 149 145 140 137 133 131 128 126 125 123 120 117 113 109 106 103 100 98 96 95 95 96 98 99 101 100 99 97 95 93 92 91 90 88 86 84 82 81 80 80 80 80 80 79 79 80 80 79 78 76 75 73 72 73 74 76 78 79 81 82 83 83 84 85 87 88 91 93 95 96 96 96 96 96 94 91 86 81 75 69 63 59 57 56 55
155 149 143 138 135 133 130 128 125 123 121 119 116 112 108 105 102 100 98 97 96 96 96 98 100 102 103 102 100 98 95 94 93 91 89 87 85 83 81 80 80 80 80 79 79 79 79 80 80 79 77 76 74 74 73 74 74 75 77 78 79 80 81 82 82 83 83 84 85 86 87 88 89 88 87 85 81 76 70 63 57 51 48 46 48 51
157 150 142 136 134 132 129 127 125 123 120 118 116 112 109 106 104 102 100 98 98 97 98 99 101 103 105 104 103 101 98 96 94 93 92 89 86 85 84 83 82 81 80 78 78 78 78 79 79 79 79 78 77 76 75 75 75 75 76 77 77 78 79 80 80 80 80 80 80 80 80 80 80 79 78 76 73 69 64 58 52 46 42 42 47 56
159 150 142 137 134 132 130 128 125 123 120 119 116 113 111 108 106 105 103 101 100 99 99 100 102 104 105 105 104 103 100 97 95 94 92 90 88 87 88 87 85 83 81 79 78 77 77 77 78 78 79 80 79 78 77 77 76 76 76 76 77 77 77 78 78 78 78 78 78 77 77 76 76 75 74 73 72 70 67 63 58 54 51 55 65 74
162 152 143 138 135 133 131 128 126 124 122 120 117 115 113 110 108 106 105 103 101 101 100 102 103 104 104 105 104 102 100 97 95 94 93 91 90 90 90 89 87 85 83 81 80 80 80 79 78 78 79 79 79 79 79 78 78 77 76 76 76 76 76 76 76 77 77 77 77 77 77 77 77 77 76 75 75 74 72 71 70 70 73 80 87 90
164 155 145 140 137 134 132 130 127 125 123 121 119 117 114 112 110 108 106 104 103 102 103 104 104 104 104 104 103 101 99 97 95 94 93 93 93 92 91 90 89 87 86 85 85 84 84 82 81 80 80 79 79 80 80 80 80 79 79 78 77 77 76 76 77 77 78 78 78 79 79 79 80 80 80 80 79 79 77 76 76 77 80 84 88 90
166 158 149 142 138 135 133 131 129 127 125 124 122 120 117 115 112 110 108 106 105 106 107 107 105 104 103 103 101 99 98 97 95 93 94 95 95 93 91 90 90 90 89 88 88 87 86 85 84 82 81 80 79 80 81 82 83 84 84 83 83 82 81 81 80 80 81 81 81 81 81 81 81 81 82 82 81 81 80 79 79 80 82 84 86 86
167 161 153 144 139 136 134 132 131 129 128 127 125 123 120 117 113 111 109 109 109 111 111 107 105 104 103 101 99 98 97 96 95 95 95 96 96 95 94 92 92 92 91 90 88 87 87 86 85 83 82 81 80 80 81 83 85 86 87 87 87 87 86 86 85 84 84 83 83 82 82 81 80 80 80 80 80 79 79 79 79 80 82 84 86 87
167 163 156 147 141 137 134 133 132 131 130 129 127 124 120 116 114 113 112 112 113 113 111 107 106 105 104 101 99 98 97 96 96 96 97 97 97 97 97 96 95 93 92 90 88 87 86 85 84 83 82 82 81 82 82 83 84 85 86 87 87 87 87 87 86 85 85 84 83 82 81 80 79 78 77 77 76 76 75 75 76 77 78 80 82 83
167 165 160 152 145 140 136 134 133 132 131 129 127 123 118 117 117 116 114 114 115 114 111 108 107 106 104 103 101 99 97 96 95 96 96 98 98 99 99 98 96 94 93 91 88 86 84 83 83 83 83 83 83 83 83 83 83 83 83 84 83 83 83 83 83 83 82 81 80 79 78 78 77 77 76 75 74 73 73 73 73 74 75 76 78 79
167 166 162 156 149 143 139 135 134 132 131 129 126 122 119 120 121 118 115 116 116 115 111 110 109 108 107 106 104 102 99 97 96 95 95 97 98 99 99 98 97 97 95 93 90 86 84 83 83 83 84 84 84 84 84 83 82 81 81 81 80 79 78 77 77 77 77 77 77 76 76 75 75 75 75 74 74 73 73 72 72 73 74 75 77 78
167 166 163 158 152 147 142 138 136 134 132 129 126 123 121 123 122 119 115 116 115 113 109 108 109 108 108 108 107 105 103 101 98 96 94 96 97 97 97 97 97 96 96 95 94 90 86 85 85 86 86 86 85 85 84 83 82 81 80 79 78 76 75 73 73 72 73 74 74 74 74 73 73 73 73 73 73 73 73 72 71 71 72 73 75 76
167 166 163 159 155 150 145 142 139 136 134 131 127 125 124 125 123 120 116 115 114 111 109 108 107 107 106 106 106 106 106 104 101 97 95 94 94 93 93 93 93 92 91 92 97 99 95 94 93 91 90 87 86 85 84 84 83 81 80 79 78 76 74 72 71 70 70 71 72 73 73 73 73 72 72 71 71 71 70 70 69 69 68 69 71 72
166 166 164 161 157 152 149 145 142 139 137 133 129 127 127 127 126 123 120 118 116 114 112 111 109 108 108 107 106 105 105 104 101 98 95 93 91 89 87 86 87 88 88 89 92 97 101 102 101 97 93 89 87 85 84 84 83 82 80 79 78 77 75 74 72 71 70 70 71 72 73 73 73 72 71 71 70 69 68 67 67 66 65 65 67 69
165 165 164 162 159 155 152 148 145 142 138 135 132 131 131 131 129 127 125 123 122 120 119 117 115 114 113 111 109 108 106 105 102 99 96 94 91 88 85 82 80 81 84 88 91 94 99 101 101 99 95 92 90 87 84 83 82 81 81 80 79 78 77 75 74 74 73 73 73 73 73 73 73 72 71 70 70 69 68 67 66 65 64 64 65 66
165 165 164 162 160 157 154 150 147 143 140 137 135 134 134 133 131 129 128 127 125 124 123 122 120 118 117 116 113 110 107 105 103 100 96 93 91 89 85 80 76 75 77 83 88 94 99 100 100 99 97 95 92 88 85 82 81 81 81 81 79 78 77 75 75 76 77 77 77 76 74 73 72 71 70 69 69 69 69 69 68 67 66 65 64 65
164 164 164 162 160 157 154 151 147 144 141 139 137 136 135 134 132 130 129 127 126 126 125 124 122 121 119 117 115 111 108 107 105 102 96 92 89 88 86 83 79 74 71 73 78 87 95 98 99 99 98 95 91 88 85 83 82 81 81 80 78 77 76 75 75 76 79 80 80 79 77 75 72 70 67 66 66 68 70 70 70 69 67 66 65 65
163 163 162 161 159 157 154 150 147 145 143 141 140 138 137 135 133 132 130 129 128 127 126 125 124 123 121 119 116 113 110 109 107 103 98 93 90 88 87 87 85 80 73 67 68 74 83 93 99 101 98 93 89 87 85 84 83 81 79 77 77 77 76 75 75 75 78 79 80 79 78 75 73 70 67 65 64 64 66 69 70 69 68 67 65 64
162 162 161 159 157 155 153 150 148 146 144 143 142 140 138 137 136 135 134 132 131 130 129 128 127 126 124 121 117 114 111 109 106 102 99 96 93 90 88 89 88 86 81 73 67 64 68 80 93 99 96 91 89 87 86 84 81 79 77 76 75 75 74 74 73 74 75 77 78 78 77 75 73 72 71 69 66 64 64 64 65 66 65 64 62 61
161 160 159 157 155 153 151 149 148 146 145 144 143 141 140 139 139 138 136 135 134 133 132 131 129 126 124 120 116 113 110 107 103 101 99 97 95 93 90 89 89 88 86 82 76 70 68 72 80 87 90 90 90 89 86 82 77 74 74 75 75 74 71 70 70 70 72 74 75 75 74 72 71 71 72 72 71 69 66 65 63 61 60 59 59 58
160 159 157 155 153 151 150 149 148 147 146 145 144 143 142 141 140 139 138 137 136 135 133 131 129 126 123 119 115 112 108 106 103 101 99 97 95 94 92 90 88 87 86 84 82 79 77 77 79 81 83 86 88 88 85 79 74 71 69 70 72 71 69 67 67 68 70 72 72 72 71 70 69 68 68 69 67 65 63 63 62 60 58 59 61 62
159 158 156 155 153 151 150 149 148 148 147 146 145 144 143 143 141 140 138 137 136 134 133 131 129 127 124 121 117 113 109 107 105 103 101 98 96 94 93 91 88 85 83 82 84 84 84 83 83 82 80 80 82 83 82 78 75 70 64 62 66 68 68 67 67 68 69 71 72 72 71 70 68 65 64 64 65 63 60 59 60 60 58 55 56 57
159 158 157 155 154 152 151 151 151 150 149 147 147 146 145 144 143 141 139 137 135 133 131 130 128 127 125 121 118 115 111 109 106 105 103 101 99 97 95 93 89 84 80 79 81 85 85 84 83 82 79 76 76 78 79 78 75 70 64 61 62 66 67 67 66 66 68 69 71 71 71 69 66 63 61 61 61 60 58 58 58 58 57 55 53 52
161 160 159 158 156 155 154 153 152 151 150 149 148 147 146 144 143 141 139 138 135 133 130 128 129 128 126 123 119 116 113 110 107 105 103 102 101 100 99 96 93 88 83 77 78 81 82 82 81 80 78 75 72 71 76 76 75 71 66 61 61 66 72 68 65 63 64 66 68 70 69 68 64 61 58 57 56 56 55 56 56 55 54 52 51 49
163 162 161 160 159 158 157 155 154 152 151 150 149 148 146 145 143 142 140 138 135 132 129 127 128 131 130 126 121 118 115 111 109 107 104 102 101 100 99 97 95 94 92 86 80 80 82 83 82 79 76 74 71 67 69 71 71 70 68 63 59 61 66 66 63 61 62 64 66 67 67 65 63 61 59 58 57 56 55 55 54 53 51 50 47 45
164 163 163 162 161 160 158 157 155 153 152 151 150 149 147 146 145 142 141 138 134 131 127 125 128 134 134 128 124 119 116 114 112 110 107 104 102 99 98 96 94 94 95 94 91 87 86 85 83 80 77 74 70 67 66 67 68 68 67 62 58 58 61 61 61 61 61 63 64 65 65 64 63 63 63 62 61 59 58 57 56 55 52 50 47 45
165 165 164 163 162 161 160 158 156 154 153 152 151 150 149 148 146 144 141 137 133 129 126 123 127 135 136 129 123 121 119 117 115 113 110 108 105 103 100 97 95 94 94 94 95 94 94 90 86 83 79 74 71 69 67 66 66 66 64 60 57 56 57 60 61 61 62 65 66 65 63 63 65 68 70 67 65 63 61 60 58 57 55 52 50 47
166 166 165 164 163 162 160 159 157 156 155 154 152 151 150 149 148 145 142 138 134 129 126 124 128 134 133 126 122 120 120 119 117 115 113 110 107 105 103 100 99 98 96 93 93 93 94 93 91 86 76 68 67 71 70 68 66 64 61 57 54 54 58 61 61 61 63 66 67 66 63 65 69 71 70 69 67 65 63 61 59 57 55 53 51 48
167 166 166 165 164 162 161 159 158 157 156 155 154 153 151 150 148 145 141 138 134 129 125 124 130 135 131 126 121 119 118 117 116 114 113 111 108 106 104 103 102 100 100 97 95 94 93 91 90 86 78 68 65 70 75 72 68 65 61 56 52 52 58 61 62 63 63 64 64 63 64 68 68 66 64 63 65 66 64 62 59 56 53 53 52 50
166 166 166 165 164 163 162 160 159 158 157 156 155 153 152 150 148 145 141 137 133 127 123 124 129 133 130 126 123 120 118 116 114 113 113 111 108 107 105 104 104 103 103 103 102 100 98 95 91 86 80 71 65 66 74 73 69 65 62 57 53 54 60 63 64 64 64 63 61 60 62 66 71 71 65 52 53 60 61 61 59 56 53 53 53 52
165 166 166 165 164 164 162 161 160 159 158 156 155 153 151 149 147 145 142 137 132 127 124 125 127 129 128 125 123 121 118 116 115 114 113 111 109 107 107 106 105 106 108 109 108 104 101 97 92 85 79 72 66 64 67 68 65 61 60 57 54 54 59 64 65 65 64 63 61 59 60 62 64 65 62 49 43 48 57 59 59 57 54 54 55 55
165 165 165 164 164 163 162 161 159 158 157 156 154 152 150 148 145 143 140 136 131 128 126 126 128 128 127 125 124 122 120 118 117 115 113 113 112 112 110 110 110 110 110 109 108 104 100 95 92 87 80 71 64 62 61 59 55 54 56 54 52 52 56 61 63 63 63 62 60 59 58 58 58 57 54 46 39 42 53 58 59 58 55 56 59 60